Regional Weather Roundup
Issued by NWS

Home | Current Version | Previous Version | Graphics & Text | Print | Product List | Glossary Off
Versions: 1 2 3 4 5 6 7 8 9 10 11 12 13 14 15 16 17 18 19 20 21 22 23 24 25 26 27 28 29 30 31 32 33 34 35 36 37 38 39 40 41 42 43 44 45 46 47 48 49 50

000
ASUS43 KDMX 132103
RWRIA

WEATHER ROUNDUP FOR IOWA
NATIONAL WEATHER SERVICE DES MOINES IA
300 PM CST SAT FEB 13 2016

NOTE: "FAIR" INDICATES FEW OR NO CLOUDS BELOW 12,000 FEET WITH NO
SIGNIFICANT WEATHER AND/OR OBSTRUCTIONS TO VISIBILITY.

* - THESE STATIONS ARE NOT NWS STATIONS...THUS NOT UNDER NWS
QUALITY CONTROL.  THEY ALSO DO NOT REPORT WEATHER SUCH
AS PRECIPITATION OR FOG.

IAZ001>003-012>014-020>022-031>034-043>046-132200-
   NORTHWEST IOWA

CITY           SKY/WX    TMP DP  RH WIND       PRES   REMARKS
CARROLL *      CLOUDY    10   3  72 SE12      30.43F WCI  -4
CHEROKEE *     CLOUDY    10   2  72 SE12      30.40F WCI  -5
DENISON *      CLOUDY    12   3  67 SE10      30.38F WCI  -1
LE MARS *      CLOUDY    12   3  67 SE12G18   30.37F WCI  -2
ORANGE CITY *  CLOUDY     9   3  78 SE10G16   30.34F WCI  -6
SHELDON *      CLOUDY     9   1  72 SE16      30.34F WCI  -9
SIOUX CITY     CLOUDY    14   2  58 SE15      30.37F WCI  -1
SPENCER        CLOUDY     7  -3  64 SE16      30.40F WCI -11
STORM LAKE *   CLOUDY     9   0  66 SE14      30.40F WCI  -8
$$

IAZ055>058-069>071-079>083-090>094-132200-
   SOUTHWEST IOWA

CITY           SKY/WX    TMP DP  RH WIND       PRES   REMARKS
ATLANTIC *     CLOUDY    16   1  53 SE12      30.40F WCI   3
AUDUBON *      CLOUDY    12   3  67 SE10      30.41F WCI  -1
CLARINDA *     CLOUDY    18   0  45 SE10      30.44F WCI   6
COUNCIL BLFS * CLOUDY    16   3  57 SE15      30.37F WCI   1
CRESTON *      CLOUDY    16   0  48 SE12      30.43F WCI   3
HARLAN  *      CLOUDY    16   3  57 SE13      30.43F WCI   2
LAMONI         CLOUDY    16   0  49 E10       30.44F WCI   4
RED OAK *      CLOUDY    18   1  49 E12       30.41F WCI   5
SHENANDOAH *   CLOUDY    19   1  45 SE13      30.42F WCI   7
$$

IAZ047>049-059>061-072>074-084-132200-
   CENTRAL IOWA

CITY           SKY/WX    TMP DP  RH WIND       PRES   REMARKS
AMES           CLOUDY    12   0  58 SE9       30.48F WCI   0
ANKENY *       CLOUDY    14   0  52 SE9       30.49F WCI   2
BOONE *        CLOUDY    10   0  61 SE13      30.44F WCI  -5
CHARITON *     CLOUDY    16   1  53 E8G14     30.48F WCI   5
DES MOINES     CLOUDY    14  -2  49 SE9       30.49F WCI   2
GRINNELL*      CLOUDY    13   0  55 SE6       30.50F WCI   4
KNOXVILLE *    CLOUDY    14  -2  48 VRB5      30.49F WCI   6
MARSHALLTOWN   CLOUDY    12  -1  56 SE6       30.49F WCI   3
NEWTON *       CLOUDY    12  -2  52 SE7       30.50F WCI   2
PELLA *        CLOUDY    15   1  51 SE3       30.52F
$$

IAZ004>006-015-016-023>025-035-036-132200-
   NORTH CENTRAL IOWA

CITY           SKY/WX    TMP DP  RH WIND       PRES   REMARKS
ALGONA *       CLOUDY     9   0  66 SE13      30.43F WCI  -7
CLARION *      CLOUDY     9  -2  61 SE12      30.46F WCI  -6
ESTHERVILLE    CLOUDY     7   0  73 SE15      30.41F WCI -10
FORT DODGE *   CLOUDY     9  -2  61 SE7       30.45F WCI  -3
MASON CITY     CLOUDY     5  -4  66 SE9       30.48F WCI  -9
FOREST CITY *  CLOUDY     7  -2  66 SE12      30.46F WCI  -9
WEBSTER CITY * CLOUDY     9   0  66 SE13      30.44F WCI  -7
IOWA FALLS *   CLOUDY    10   0  63 SE6       30.48F HAZE    WCI   1
$$

IAZ007>011-017>019-026>030-037>042-050>054-066-132200-
   NORTHEAST IOWA

CITY           SKY/WX    TMP DP  RH WIND       PRES   REMARKS
CEDAR RAPIDS   PTSUNNY   16  -2  45 VRB3      30.52F
CHARLES CITY * CLOUDY     7  -8  51 SW6       30.49F WCI  -3
CLINTON *      CLOUDY    20  -5  33 VRB3      30.55F
DECORAH *      SUNNY      9  -8  47 VRB6      30.48F WCI  -1
DUBUQUE        SUNNY     12  -7  42 VRB5      30.51F WCI   4
MONTICELLO *   CLOUDY    12  -8  40 MISG      30.53F
OELWEIN *      SUNNY      7  -6  56 CALM      30.51F
WATERLOO       CLOUDY     8  -4  58 E7        30.52F WCI  -3
$$

IAZ064-065-067-068-078-132200-
   EAST CENTRAL IOWA

CITY           SKY/WX    TMP DP  RH WIND       PRES   REMARKS
DAVENPORT      CLOUDY    18  -7  32 N3        30.54F
IOWA CITY      CLOUDY    18  -7  32 VRB3      30.56F
MT. PLEASANT * CLOUDY    20   0  40 N3        30.55F
MUSCATINE *    CLOUDY    19  -8  30 CALM      30.57F
QUAD CITIES    CLOUDY    19  -6  33 SW6       30.55F WCI  11
$$

IAZ062-063-075>077-085>089-095>099-132200-
   SOUTHEAST IOWA

CITY           SKY/WX    TMP DP  RH WIND       PRES   REMARKS
BURLINGTON     CLOUDY    18  -4  37 VRB5      30.53F WCI  11
FAIRFIELD *    CLOUDY    18  -4  38 CALM      30.53F
FORT MADISON * CLOUDY    19   0  42 CALM      30.54F
KEOKUK *       CLOUDY    19   1  45 SE5       30.54F WCI  13
OSKALOOSA *    CLOUDY    16   2  54 SE6       30.52F WCI   7
OTTUMWA        CLOUDY    15   0  51 SE5       30.52F WCI   8
WASHINGTON *   CLOUDY    18  -2  41 CALM      30.55F
$$

ABBREVIATIONS USED IN REMARKS
   TC - TEMPERATURES IN CELSIUS
  WCI - WIND CHILL INDEX
   HX - HEAT INDEX
  VSB - VISIBILITY
$$




USA.gov is the U.S. government's official web portal to all federal, state and local government web resources and services.